Вернуться в каталог

STARLINK-5425

АктивенСвязьVLEO
NORAD 54791·PAYLOAD·🇺🇸 United States

Запущен Dec 17, 2022 с Cape Canaveral Space Force Station

Loading…

Ближайшие Пролёты (ближайшие 24 часа)

TLE

СвежийSource: CelesTrak SupGP

Эпоха: Sep 15, 2026, 01:57 UTC

1 54791C 22175AK  26258.08173611 -.00020412  00000+0 -60304-3 0  2587
2 54791  53.1579 244.9390 0001263  90.8462 189.2940 15.34402984    14

Отслеживайте STARLINK-5425 в реальном времени с AllMySat

Download on the App Store